This demonstration page uses our WeatherBlox Daily Observations layout. Learn more.

Left ArrowRight Arrow

41.12389, -100.76542

Hourly Observations for February 1, 2019

Temp ( °F °C ) Dew Point ( °F °C ) Humidity (%) Winds ( mph kmh ) Pressure ( in mb ) Visibility ( mi km ) Precip ( " mm )
12:53 am 00:53 Clear 20 -6.7 16 -8.9 85 85 NW 6 9 30.03 1017 10 16 0.00 0.00
1:53 am 01:53 Clear 20 -6.7 16 -8.9 85 85 Calm 30.01 1016 10 16 0.00 0.00
2:53 am 02:53 Clear 19 -7.2 16 -8.9 88 88 Calm 30.03 1017 10 16 0.00 0.00
3:53 am 03:53 Clear 19 -7.2 15 -9.4 84 84 NW 5 7 30.02 1017 10 16 0.00 0.00
4:53 am 04:53 Clear 16 -8.9 13 -10.6 88 88 NNW 3 6 30.02 1017 10 16 0.00 0.00
5:53 am 05:53 Clear 16 -8.9 13 -10.6 88 88 N 3 6 30.05 1018 10 16 0.00 0.00
6:53 am 06:53 Clear 18 -7.8 15 -9.4 88 88 Calm 30.04 1017 10 16 0.00 0.00
7:53 am 07:53 Clear 16 -8.9 13 -10.6 88 88 Calm 30.09 1019 10 16 0.00 0.00
8:53 am 08:53 Sunny 25 -3.9 20 -6.7 81 81 Calm 30.07 1018 10 16 0.00 0.00
9:53 am 09:53 Sunny 33 0.6 22 -5.6 64 64 WNW 7 11 30.08 1019 10 16 0.00 0.00
10:53 am 10:53 Sunny 41 5 23 -5 49 49 W 3 6 30.07 1018 10 16 0.00 0.00
11:53 am 11:53 Sunny 52 11.1 22 -5.6 31 31 WSW 8 13 30.04 1017 10 16 0.00 0.00
12:53 pm 12:53 Sunny 59 15 22 -5.6 24 24 WSW 10 17 29.99 1016 10 16 0.00 0.00
1:53 pm 13:53 Sunny 62 16.7 20 -6.7 20 20 WSW 13 20 29.96 1015 10 16 0.00 0.00
2:53 pm 14:53 Sunny 64 17.8 17 -8.3 16 16 WSW 13 20 29.93 1014 10 16 0.00 0.00
3:53 pm 15:53 Sunny 63 17.2 16 -8.9 16 16 SW 13 20 29.93 1014 10 16 0.00 0.00
4:53 pm 16:53 Sunny 60 15.6 19 -7.2 20 20 SSW 10 17 29.94 1014 10 16 0.00 0.00
5:53 pm 17:53 Sunny 55 12.8 18 -7.8 23 23 SW 5 7 29.95 1014 10 16 0.00 0.00
6:53 pm 18:53 Clear 43 6.1 20 -6.7 40 40 S 3 6 29.98 1015 10 16 0.00 0.00
7:53 pm 19:53 Clear 42 5.6 20 -6.7 41 41 SSW 8 13 29.99 1016 10 16 0.00 0.00
8:53 pm 20:53 Clear 43 6.1 24 -4.4 47 47 SSW 12 19 29.96 1015 10 16 0.00 0.00
9:53 pm 21:53 Clear 45 7.2 24 -4.4 44 44 SSW 15 24 29.94 1014 10 16 0.00 0.00
10:53 pm 22:53 Clear 41 5 25 -3.9 53 53 SSW 10 17 29.93 1014 10 16 0.00 0.00
11:53 pm 23:53 Clear 40 4.4 24 -4.4 53 53 SW 5 7 29.92 1013 10 16 0.00 0.00

Powered by AerisWeather